Terminal Aerodrome Forecast
Issued by NWS

Home | Current Version | Previous Version | Text Only | Print | Product List | Glossary On
Versions: 1 2 3 4 5 6 7 8 9 10 11 12 13 14 15 16 17 18 19 20 21 22 23 24 25 26
000
FTUS41 KPBZ 281000 AAC
TAFFKL
TAF AMD
KFKL 281000Z 2810/2906 28010KT P6SM VCSH OVC006
     FM281200 28012KT 6SM -SHRA BKN020
     FM281800 31013G18KT P6SM BKN035
     FM290100 31006KT P6SM SCT035
      AMD LTD TO CLD VIS AND WIND=

USA.gov is the U.S. government's official web portal to all federal, state and local government web resources and services.